Weather History for South St. Paul, MN

Change the Weather History Date:

Wednesday, October 10, 2012

  Actual Average (KMSP) Record (KMSP)
Temperature  
Mean Temperature 42 °F 51 °F  
Max Temperature 52 °F 61 °F 90 °F (1928)
Min Temperature 32 °F 42 °F 25 °F (1964)
Degree Days  
Heating Degree Days 23 14  
Month to date heating degree days 122  
Since 1 July heating degree days 295  
Cooling Degree Days 0 0  
Month to date cooling degree days 3  
Year to date cooling degree days 750  
Moisture  
Dew Point 26 °F    
Average Humidity 51    
Maximum Humidity 80    
Minimum Humidity 31    
Precipitation  
Precipitation 0.00 in 0.08 in 1.89 in (1898)
Month to date precipitation 0.92  
Year to date precipitation 26.17  
Snow  
Snow 0.00 in 0.00 in 2.50 in (1977)
Month to date snowfall 0.0  
Since 1 July snowfall T  
Since 1 September snowfall T  
Snow Depth -    
Sea Level Pressure  
Sea Level Pressure 30.01 in    
Wind  
Wind Speed 7 mph (WSW)    
Max Wind Speed 15 mph    
Max Gust Speed 22 mph    
Visibility 10 miles    
Events      
T = Trace of Precipitation, MM = Missing Value Source: NWS Daily Summary

Daily Weather History Graph

Daily Weather History Graph

Search for Another Location

Airport:

Trip Planner

Search our weather history database for the weather conditions in past years. The results will help you decide how hot, cold, wet, or windy it might be!

Date:

Astronomy

Oct. 10, 2012 Rise Set
Actual Time 7:21 AM CDT 6:35 PM CDT
Civil Twilight 6:52 AM CDT 7:04 PM CDT
Nautical Twilight 6:18 AM CDT 7:38 PM CDT
Astronomical Twilight 5:44 AM CDT 8:12 PM CDT
Moon 1:46 AM CDT (10/10) 3:49 PM CDT (10/10)
Length of Visible Light 12h 11m
Length of Day
11h 13m
Waning Crescent, 27% of the Moon is Illuminated
Oct 10
Waning Crescent
Oct 15
New
Oct 21
First Quarter
Oct 29
Full
Nov 6
Last Quarter

Hourly Weather History & Observations

Time (CDT) Temp. Windchill Dew Point Humidity Pressure Visibility Wind Dir Wind Speed Gust Speed Precip Events Conditions
12:12 AM 39.6 °F 33.5 °F 26.2 °F 59% 29.97 in 10.0 mi WNW 9.2 mph - N/A   Clear
12:52 AM 38.7 °F 34.3 °F 26.4 °F 61% 29.97 in 10.0 mi West 5.8 mph - N/A   Clear
1:12 AM 38.5 °F 32.1 °F 26.2 °F 61% 29.98 in 10.0 mi WNW 9.2 mph - N/A   Clear
1:32 AM 38.1 °F 33.7 °F 26.2 °F 62% 29.98 in 10.0 mi West 5.8 mph - N/A   Clear
1:52 AM 37.4 °F 32.1 °F 26.1 °F 64% 29.99 in 10.0 mi West 6.9 mph - N/A   Clear
2:12 AM 37.0 °F 31.6 °F 26.1 °F 65% 30.00 in 10.0 mi West 6.9 mph - N/A   Clear
2:32 AM 36.7 °F 30.5 °F 26.2 °F 66% 30.00 in 10.0 mi West 8.1 mph - N/A   Clear
2:52 AM 36.5 °F 30.3 °F 26.4 °F 67% 30.00 in 10.0 mi West 8.1 mph - N/A   Scattered Clouds
3:12 AM 36.0 °F 30.3 °F 26.2 °F 68% 30.01 in 10.0 mi West 6.9 mph - N/A   Scattered Clouds
3:32 AM 36.5 °F 30.3 °F 26.4 °F 67% 30.01 in 10.0 mi West 8.1 mph - N/A   Mostly Cloudy
3:52 AM 36.9 °F 30.7 °F 26.6 °F 66% 30.01 in 10.0 mi WNW 8.1 mph - N/A   Overcast
4:12 AM 36.7 °F 29.9 °F 26.6 °F 67% 30.02 in 10.0 mi WNW 9.2 mph - N/A   Overcast
4:32 AM 36.5 °F 31.0 °F 26.6 °F 67% 30.02 in 10.0 mi WNW 6.9 mph - N/A   Mostly Cloudy
4:52 AM 36.3 °F 31.6 °F 26.6 °F 68% 30.02 in 10.0 mi WNW 5.8 mph - N/A   Clear
5:12 AM 36.0 °F 30.3 °F 26.6 °F 69% 30.03 in 10.0 mi WNW 6.9 mph - N/A   Clear
5:32 AM 35.6 °F 30.7 °F 26.6 °F 70% 30.03 in 10.0 mi West 5.8 mph - N/A   Clear
5:52 AM 34.9 °F 29.9 °F 26.6 °F 72% 30.04 in 10.0 mi West 5.8 mph - N/A   Clear
6:12 AM 34.7 °F 29.6 °F 26.6 °F 72% 30.04 in 10.0 mi West 5.8 mph - N/A   Clear
6:32 AM 34.2 °F 29.0 °F 27.0 °F 75% 30.04 in 10.0 mi West 5.8 mph - N/A   Clear
6:52 AM 34.3 °F 30.2 °F 26.8 °F 74% 30.05 in 10.0 mi West 4.6 mph - N/A   Clear
7:12 AM 32.9 °F 27.5 °F 26.8 °F 78% 30.05 in 10.0 mi West 5.8 mph - N/A   Clear
7:32 AM 32.7 °F 27.3 °F 27.1 °F 80% 30.06 in 10.0 mi WSW 5.8 mph - N/A   Clear
7:52 AM 32.9 °F 27.5 °F 27.3 °F 80% 30.07 in 10.0 mi West 5.8 mph - N/A   Clear
8:32 AM 36.0 °F 31.1 °F 27.9 °F 72% 30.08 in 10.0 mi West 5.8 mph - N/A   Clear
8:52 AM 37.4 °F 32.8 °F 28.2 °F 69% 30.09 in 10.0 mi WNW 5.8 mph - N/A   Clear
9:12 AM 38.5 °F 32.7 °F 28.2 °F 67% 30.09 in 10.0 mi WNW 8.1 mph - N/A   Clear
9:32 AM 39.4 °F 34.5 °F 28.4 °F 65% 30.09 in 10.0 mi West 6.9 mph - N/A   Clear
9:52 AM 40.3 °F 36.3 °F 28.8 °F 63% 30.09 in 10.0 mi West 5.8 mph - N/A   Clear
10:12 AM 41.7 °F 36.7 °F 27.5 °F 57% 30.09 in 10.0 mi WNW 8.1 mph - N/A   Clear
10:32 AM 43.2 °F 38.4 °F 27.3 °F 54% 30.10 in 10.0 mi West 8.1 mph - N/A   Clear
10:52 AM 44.8 °F 39.4 °F 25.9 °F 48% 30.10 in 10.0 mi NW 10.4 mph - N/A   Clear
11:12 AM 45.7 °F 40.6 °F 25.5 °F 45% 30.10 in 10.0 mi West 10.4 mph - N/A   Clear
11:52 AM 46.9 °F - 23.7 °F 40% 30.10 in 10.0 mi West 9.2 mph - N/A   Scattered Clouds
12:12 PM 48.4 °F - 22.1 °F 36% 30.10 in 10.0 mi West 15.0 mph 18.4 mph N/A   Scattered Clouds
12:32 PM 49.1 °F - 23.2 °F 36% 30.10 in 10.0 mi WNW 10.4 mph 19.6 mph N/A   Scattered Clouds
12:52 PM 49.1 °F - 24.3 °F 38% 30.09 in 10.0 mi West 9.2 mph 17.3 mph N/A   Mostly Cloudy
1:12 PM 48.9 °F - 24.3 °F 38% 30.08 in 10.0 mi WNW 12.7 mph - N/A   Scattered Clouds
1:32 PM 50.2 °F - 24.4 °F 37% 30.07 in 10.0 mi WSW 9.2 mph 17.3 mph N/A   Scattered Clouds
1:52 PM 48.4 °F - 24.4 °F 39% 30.07 in 10.0 mi West 9.2 mph 16.1 mph N/A   Scattered Clouds
2:12 PM 50.9 °F - 24.1 °F 35% 30.06 in 10.0 mi West 11.5 mph 16.1 mph N/A   Scattered Clouds
2:32 PM 50.0 °F - 24.1 °F 36% 30.06 in 10.0 mi West 9.2 mph 18.4 mph N/A   Mostly Cloudy
2:52 PM 51.6 °F - 23.7 °F 34% 30.05 in 10.0 mi West 10.4 mph - N/A   Mostly Cloudy
3:12 PM 50.4 °F - 23.9 °F 36% 30.05 in 10.0 mi WNW 8.1 mph - N/A   Mostly Cloudy
3:32 PM 50.9 °F - 24.4 °F 36% 30.03 in 10.0 mi West 8.1 mph - N/A   Mostly Cloudy
3:52 PM 51.8 °F - 23.4 °F 33% 30.03 in 10.0 mi West 9.2 mph - N/A   Mostly Cloudy
4:12 PM 52.5 °F - 22.5 °F 31% 30.02 in 10.0 mi West 15.0 mph 21.9 mph N/A   Scattered Clouds
4:32 PM 51.4 °F - 23.0 °F 33% 30.01 in 10.0 mi West 10.4 mph - N/A   Scattered Clouds
4:52 PM 51.6 °F - 23.0 °F 33% 30.01 in 10.0 mi West 12.7 mph 16.1 mph N/A   Scattered Clouds
5:12 PM 51.8 °F - 23.5 °F 33% 30.00 in 10.0 mi SW 6.9 mph - N/A   Clear
5:32 PM 51.8 °F - 23.5 °F 33% 30.00 in 10.0 mi WSW 5.8 mph - N/A   Scattered Clouds
5:52 PM 51.8 °F - 23.7 °F 33% 30.00 in 10.0 mi SW 3.5 mph - N/A   Scattered Clouds
6:12 PM 51.1 °F - 23.7 °F 34% 29.98 in 10.0 mi SSW 3.5 mph - N/A   Scattered Clouds
6:32 PM 50.9 °F - 24.6 °F 36% 29.97 in 10.0 mi South 3.5 mph - N/A   Mostly Cloudy
6:52 PM 50.5 °F - 24.6 °F 36% 29.97 in 10.0 mi Calm Calm - N/A   Overcast
7:12 PM 50.2 °F - 25.0 °F 37% 29.97 in 10.0 mi Calm Calm - N/A   Overcast
7:32 PM 49.8 °F - 27.5 °F 42% 29.97 in 10.0 mi SSE 3.5 mph - N/A   Overcast
7:52 PM 49.6 °F - 27.9 °F 43% 29.97 in 10.0 mi SSE 3.5 mph - N/A   Mostly Cloudy
8:12 PM 49.6 °F - 27.3 °F 42% 29.95 in 10.0 mi SSE 5.8 mph - N/A   Mostly Cloudy
8:32 PM 50.0 °F - 26.4 °F 40% 29.95 in 10.0 mi SSE 4.6 mph - N/A   Scattered Clouds
8:52 PM 49.6 °F - 26.8 °F 41% 29.95 in 10.0 mi SSE 4.6 mph - N/A   Mostly Cloudy
9:12 PM 49.3 °F - 28.0 °F 44% 29.94 in 10.0 mi SSE 5.8 mph - N/A   Overcast
9:32 PM 49.3 °F - 28.0 °F 44% 29.93 in 10.0 mi SE 4.6 mph - N/A   Overcast
9:52 PM 49.1 °F - 28.0 °F 44% 29.92 in 10.0 mi SSE 4.6 mph - N/A   Overcast
10:12 PM 49.1 °F - 27.9 °F 44% 29.91 in 10.0 mi SSE 5.8 mph - N/A   Overcast
10:32 PM 49.5 °F - 27.5 °F 43% 29.90 in 10.0 mi SSE 5.8 mph - N/A   Overcast
10:52 PM 50.2 °F - 25.7 °F 39% 29.89 in 10.0 mi SSE 6.9 mph - N/A   Overcast
11:12 PM 50.5 °F - 25.7 °F 38% 29.87 in 10.0 mi SSE 6.9 mph - N/A   Mostly Cloudy
11:32 PM 50.5 °F - 26.1 °F 39% 29.87 in 10.0 mi South 8.1 mph - N/A   Overcast
11:52 PM 51.6 °F - 25.3 °F 36% 29.85 in 10.0 mi South 11.5 mph - N/A   Overcast